Location: Robert Brownlee Observatory
(34.2308°N, 117.2089°W)
Time: 03:20:24
(UTC-07:00)

Cosmos 1943 - Visible Passes

Search period start: 02 August 2015 00:00
Search period end: 12 August 2015 00:00
Orbit: 834 x 850 km, 71.0° (Epoch: 01 August)

Date Brightness Start Highest point End Pass type
(mag) Time Alt. Az. Time Alt. Az. Time Alt. Az.
02 Aug 3.1 21:33:50 10° NNW 21:39:32 87° ENE 21:41:53 37° SSE visible
03 Aug 3.1 21:18:55 10° NNW 21:24:37 82° ENE 21:27:39 29° SSE visible
04 Aug 3.2 21:04:00 10° NNW 21:09:42 78° ENE 21:13:30 22° SSE visible
04 Aug 5.7 22:51:38 10° W 22:53:11 11° W 22:54:16 10° WSW visible
05 Aug 3.2 20:49:05 10° NNW 20:54:46 74° ENE 20:59:24 16° SSE visible
05 Aug 5.7 22:36:13 10° WNW 22:38:17 12° W 22:39:56 10° WSW visible
06 Aug 3.2 20:34:11 10° NNW 20:39:51 70° ENE 20:45:23 11° SSE visible
06 Aug 5.7 22:20:55 10° WNW 22:23:23 12° W 22:25:28 10° WSW visible
07 Aug 3.3 20:19:17 10° NNW 20:24:56 66° ENE 20:30:35 10° SSE visible
07 Aug 5.7 22:05:42 10° WNW 22:08:29 13° W 22:10:55 10° SW visible
08 Aug 3.3 20:04:22 10° NNW 20:10:00 63° ENE 20:15:38 10° SSE visible
08 Aug 5.7 21:50:32 10° WNW 21:53:35 14° W 21:56:19 10° SW visible
09 Aug 5.7 21:35:24 10° WNW 21:38:42 15° W 21:41:41 10° SW visible
10 Aug 5.7 21:20:17 10° WNW 21:23:48 16° W 21:27:02 10° SW visible
11 Aug 5.7 21:05:11 10° WNW 21:08:54 17° W 21:12:20 10° SW visible
